Location: San Francisco
(37.7790°N, 122.4199°W)
Time: 07:22:07
(UTC-08:00)

ISS - Visible Passes

Search period start: 11 December 2023 00:00
Search period end: 21 December 2023 00:00
Orbit: 415 x 416 km, 51.6° (Epoch: 11 December)

Date Brightness Start Highest point End Pass type
(mag) Time Alt. Az. Time Alt. Az. Time Alt. Az.
14 Dec -0.8 06:26:03 10° S 06:28:37 21° SE 06:31:11 10° E visible
15 Dec -0.3 05:38:57 10° SSE 05:40:03 11° SE 05:41:10 10° ESE visible
16 Dec -3.4 06:24:17 10° SW 06:27:35 66° SE 06:30:55 10° NE visible
17 Dec -2.1 05:35:58 11° SSW 05:38:53 34° SE 05:41:56 10° ENE visible
18 Dec -0.9 04:50:45 18° ESE 04:50:45 18° ESE 04:52:37 10° E visible
18 Dec -3.3 06:23:43 11° WSW 06:26:43 41° NW 06:29:54 10° NE visible
19 Dec -3.9 05:37:58 72° NNW 05:37:58 72° NNW 05:41:10 10° NE visible
20 Dec -0.7 04:51:50 13° ENE 04:51:50 13° ENE 04:52:18 10° ENE visible
20 Dec -2.1 06:24:45 16° NW 06:25:58 19° NNW 06:28:28 10° NNE visible
